Tillbaka till svenska Fidonet
English   Information   Debug  
FILM   0/18
FNEWS_PUBLISH   4983
FN_SYSOP   42232
FN_SYSOP_OLD1   71952
FTP_FIDO   0/2
FTSC_PUBLIC   0/13976
FUNNY   0/4886
GENEALOGY.EUR   0/71
GET_INFO   105
GOLDED   293/408
HAM   673/16715
HOLYSMOKE   0/6791
HOT_SITES   0/1
HTMLEDIT   0/71
HUB203   466
HUB_100   264
HUB_400   39
HUMOR   0/29
IC   230/2851
INTERNET   0/424
INTERUSER   0/3
IP_CONNECT   719
JAMNNTPD   0/233
JAMTLAND   0/47
KATTY_KORNER   0/41
LAN   0/16
LINUX-USER   0/19
LINUXHELP   0/1155
LINUX   0/22386
LINUX_BBS   0/957
mail   18.68
mail_fore_ok   249
MENSA   275/341
MODERATOR   0/102
MONTE   0/992
MOSCOW_OKLAHOMA   0/1245
MUFFIN   0/783
MUSIC   0/321
N203_STAT   938
N203_SYSCHAT   313
NET203   321
NET204   69
NET_DEV   0/10
NORD.ADMIN   0/101
NORD.CHAT   0/2572
NORD.FIDONET   189
NORD.HARDWARE   0/28
NORD.KULTUR   0/114
NORD.PROG   0/32
NORD.SOFTWARE   0/88
NORD.TEKNIK   0/58
NORD   0/453
OCCULT_CHAT   0/93
OS2BBS   0/787
OS2DOSBBS   0/580
OS2HW   0/42
OS2INET   0/37
OS2LAN   0/134
OS2PROG   0/36
OS2REXX   0/113
OS2USER-L   207
OS2   0/4831
OSDEBATE   0/18996
PASCAL   0/490
PERL   0/457
PHP   0/45
POINTS   0/405
POLITICS   26785/29554
POL_INC   120/14731
PSION   103
R20_ADMIN   1133
R20_AMATORRADIO   0/2
R20_BEST_OF_FIDONET   16
R20_CHAT   0/897
R20_DEPP   0/3
R20_DEV   400
R20_ECHO2   1889
R20_ECHOPRES   0/35
R20_ESTAT   0/719
R20_FIDONETPROG...
...RAM.MYPOINT
  0/2
R20_FIDONETPROGRAM   0/22
R20_FIDONET   0/248
R20_FILEFIND   0/24
R20_FILEFOUND   0/22
R20_HIFI   0/3
R20_INFO2   3782
R20_INTERNET   0/12940
R20_INTRESSE   0/60
R20_INTR_KOM   0/99
R20_KANDIDAT.CHAT   42
R20_KANDIDAT   28
R20_KOM_DEV   112
R20_KONTROLL   0/13360
R20_KORSET   0/18
R20_LOKALTRAFIK   0/24
R20_MODERATOR   0/1852
R20_NC   76
R20_NET200   245
R20_NETWORK.OTH...
...ERNETS
  0/13
R20_OPERATIVSYS...
...TEM.LINUX
  0/44
R20_PROGRAMVAROR   0/1
R20_REC2NEC   534
R20_SFOSM   0/341
R20_SF   0/108
R20_SPRAK.ENGLISH   0/1
R20_SQUISH   107
R20_TEST   2
R20_WORST_OF_FIDONET   20
RAR   0/9
RA_MULTI   106
RA_UTIL   0/162
REGCON.EUR   0/2069
REGCON   0/13
SCIENCE   0/1206
SF   0/239
SHAREWARE_SUPPORT   0/5146
SHAREWRE   0/14
SIMPSONS   0/169
STATS_OLD1   1951/2539.065
STATS_OLD2   0/2530
STATS_OLD3   0/2395.095
STATS_OLD4   0/1692.25
SURVIVOR   0/495
SYSOPS_CORNER   0/3
SYSOP   0/84
TAGLINES   0/112
TEAMOS2   0/4530
TECH   0/2617
TEST.444   0/105
TRAPDOOR   0/19
TREK   0/755
TUB   0/290
UFO   0/40
UNIX   0/1316
USA_EURLINK   0/102
USR_MODEMS   0/1
VATICAN   0/2740
VIETNAM_VETS   0/14
VIRUS   0/378
VIRUS_INFO   0/201
VISUAL_BASIC   0/473
WHITEHOUSE   0/5187
WIN2000   0/101
WIN32   0/30
WIN95   0/4291
WIN95_OLD1   0/70272
WINDOWS   251/1517
WWB_SYSOP   0/419
WWB_TECH   448/810
ZCC-PUBLIC   0/1
ZEC   4

 
4DOS   0/134
ABORTION   0/7
ALASKA_CHAT   0/506
ALLFIX_FILE   0/1313
ALLFIX_FILE_OLD1   0/7997
ALT_DOS   0/152
AMATEUR_RADIO   0/1039
AMIGASALE   0/14
AMIGA   0/331
AMIGA_INT   0/1
AMIGA_PROG   0/20
AMIGA_SYSOP   0/26
ANIME   0/15
ARGUS   0/924
ASCII_ART   0/340
ASIAN_LINK   0/651
ASTRONOMY   0/417
AUDIO   0/92
AUTOMOBILE_RACING   0/105
BABYLON5   0/17862
BAG   135
BATPOWER   0/361
BBBS.ENGLISH   0/382
BBSLAW   0/109
BBS_ADS   0/5290
BBS_INTERNET   0/507
BIBLE   0/3563
BINKD   0/1119
BINKLEY   0/215
BLUEWAVE   0/2173
CABLE_MODEMS   0/25
CBM   0/46
CDRECORD   0/66
CDROM   0/20
CLASSIC_COMPUTER   0/378
COMICS   0/15
CONSPRCY   0/899
COOKING   42010
COOKING_OLD1   0/24719
COOKING_OLD2   28999/40862
COOKING_OLD3   0/37489
COOKING_OLD4   0/35496
COOKING_OLD5   9370
C_ECHO   0/189
C_PLUSPLUS   0/31
DIRTY_DOZEN   0/201
DOORGAMES   0/2333
DOS_INTERNET   0/196
duplikat   6102
ECHOLIST   18160/18295
EC_SUPPORT   0/318
ELECTRONICS   0/359
ELEKTRONIK.GER   1534
ENET.LINGUISTIC   0/13
ENET.POLITICS   0/4
ENET.SOFT   0/11701
ENET.SYSOP   34335
ENET.TALKS   0/32
ENGLISH_TUTOR   0/2000
EVOLUTION   0/1335
FDECHO   0/217
FDN_ANNOUNCE   3500/7068
FIDONEWS   25122
FIDONEWS_OLD1   0/49742
FIDONEWS_OLD2   0/35949
FIDONEWS_OLD3   0/30874
FIDONEWS_OLD4   0/37224
FIDO_SYSOP   12973
FIDO_UTIL   0/180
FILEFIND   0/209
FILEGATE   0/212
Möte HAM, 16715 texter
 lista första sista föregående nästa
Text 2127, 802 rader
Skriven 2008-02-22 00:00:41 av Amsat List (1:323/120.0)
Ärende: [keps]  orb08052.amsa
=============================
[keps]  orb08052.amsa

Return-Path: <keps-bounces@amsat.org>
X-Rcpt: craig.healy@chowda.com
X-UIDL: 1203656018.639

SB KEPS @ AMSAT  $ORB08052.O
Orbital Elements  08052.OSCAR

HR AMSAT ORBITAL ELEMENTS FOR OSCAR SATELLITES
FROM WA5QGD FORT WORTH,TX February 21, 2008
Send Subscribe/unsubscribe to KEPS at 
http://www.amsat.org/mailman/listinfo/keps
BID: ORB08052.O
TO ALL RADIO AMATEURS BT

Satellite: AO-07
Catalog number: 07530
Epoch time:      08052.77619259
Element set:     108
Inclination:      101.4829 deg
RA of node:       088.1076 deg
Eccentricity:    0.0012155
Arg of perigee:   129.2580 deg
Mean anomaly:     230.9568 deg
Mean motion:   12.53573435 rev/day
Decay rate:       -2.7e-07 rev/day^2
Epoch rev:           52239
Checksum:              301

Satellite: AO-10
Catalog number: 14129
Epoch time:      08051.72407264
Element set:     472
Inclination:      025.9259 deg
RA of node:       229.3821 deg
Eccentricity:    0.6027879
Arg of perigee:   100.4295 deg
Mean anomaly:     328.7203 deg
Mean motion:   02.05867954 rev/day
Decay rate:       1.20e-06 rev/day^2
Epoch rev:           18568
Checksum:              308

Satellite: UO-11
Catalog number: 14781
Epoch time:      08051.78838550
Element set:    0602
Inclination:      098.1690 deg
RA of node:       083.9846 deg
Eccentricity:    0.0010178
Arg of perigee:   091.8246 deg
Mean anomaly:     268.4145 deg
Mean motion:   14.79618913 rev/day
Decay rate:       1.79e-06 rev/day^2
Epoch rev:           28649
Checksum:              342

Satellite: RS-15
Catalog number: 23439
Epoch time:      08051.94062879
Element set:    0157
Inclination:      064.8226 deg
RA of node:       324.6477 deg
Eccentricity:    0.0150468
Arg of perigee:   145.0216 deg
Mean anomaly:     216.0703 deg
Mean motion:   11.27551493 rev/day
Decay rate:       -3.9e-07 rev/day^2
Epoch rev:           54174
Checksum:              305

Satellite: FO-29
Catalog number: 24278
Epoch time:      08052.86877160
Element set:     707
Inclination:      098.5843 deg
RA of node:       344.3834 deg
Eccentricity:    0.0351002
Arg of perigee:   156.5340 deg
Mean anomaly:     205.2261 deg
Mean motion:   13.52935292 rev/day
Decay rate:       -2.6e-07 rev/day^2
Epoch rev:           56866
Checksum:              317

Satellite: SO-33
Catalog number: 25509
Epoch time:      08051.90073745
Element set:    0137
Inclination:      031.4284 deg
RA of node:       259.5154 deg
Eccentricity:    0.0354582
Arg of perigee:   081.8324 deg
Mean anomaly:     282.2349 deg
Mean motion:   14.28196598 rev/day
Decay rate:       1.24e-06 rev/day^2
Epoch rev:           48683
Checksum:              322

Satellite: AO-40
Catalog number: 26609
Epoch time:      08050.17454471
Element set:    0012
Inclination:      007.4126 deg
RA of node:       096.9548 deg
Eccentricity:    0.7924077
Arg of perigee:   053.1927 deg
Mean anomaly:     355.7323 deg
Mean motion:   01.25583023 rev/day
Decay rate:      -4.51e-06 rev/day^2
Epoch rev:           03354
Checksum:              293

Satellite: VO-52
Catalog number: 28650
Epoch time:      08052.62490577
Element set:     862
Inclination:      097.8027 deg
RA of node:       122.3727 deg
Eccentricity:    0.0027673
Arg of perigee:   158.6228 deg
Mean anomaly:     201.6185 deg
Mean motion:   14.81423980 rev/day
Decay rate:       3.33e-06 rev/day^2
Epoch rev:           15134
Checksum:              309

Satellite: PO-63
Catalog number: 29712
Epoch time:      08052.74280878
Element set:     206
Inclination:      097.8904 deg
RA of node:       113.0555 deg
Eccentricity:    0.0015115
Arg of perigee:   042.9505 deg
Mean anomaly:     317.2875 deg
Mean motion:   14.80029831 rev/day
Decay rate:       5.18e-06 rev/day^2
Epoch rev:            6024
Checksum:              297

/EX
SB KEPS @ AMSAT  $ORB08052.D
Orbital Elements  08052.MICROS

HR AMSAT ORBITAL ELEMENTS FOR THE MICROSATS
FROM WA5QGD FORT WORTH,TX February 21, 2008
Send Subscribe/unsubscribe to KEPS at 
http://www.amsat.org/mailman/listinfo/keps
BID: ORB08052.D
TO ALL RADIO AMATEURS BT

Satellite: AO-16
Catalog number: 20439
Epoch time:      08052.64579672
Element set:     257
Inclination:      098.2195 deg
RA of node:       038.7298 deg
Eccentricity:    0.0011085
Arg of perigee:   158.6827 deg
Mean anomaly:     201.4798 deg
Mean motion:   14.31784745 rev/day
Decay rate:        9.0e-08 rev/day^2
Epoch rev:           94424
Checksum:              342

Satellite: LO-19
Catalog number: 20442
Epoch time:      08051.66439206
Element set:    0182
Inclination:      098.1937 deg
RA of node:       046.6683 deg
Eccentricity:    0.0012097
Arg of perigee:   160.1837 deg
Mean anomaly:     199.9824 deg
Mean motion:   14.32023473 rev/day
Decay rate:       -4.9e-07 rev/day^2
Epoch rev:           94425
Checksum:              318

Satellite: AO-27
Catalog number: 22825
Epoch time:      08051.86794556
Element set:     903
Inclination:      098.3682 deg
RA of node:       016.3799 deg
Eccentricity:    0.0007546
Arg of perigee:   245.9919 deg
Mean anomaly:     114.0485 deg
Mean motion:   14.29230872 rev/day
Decay rate:       -2.5e-07 rev/day^2
Epoch rev:           75101
Checksum:              330

Satellite: IO-26
Catalog number: 22826
Epoch time:      08051.80235427
Element set:    0606
Inclination:      098.3612 deg
RA of node:       017.2814 deg
Eccentricity:    0.0008076
Arg of perigee:   242.9801 deg
Mean anomaly:     117.0551 deg
Mean motion:   14.29478612 rev/day
Decay rate:       -1.0e-08 rev/day^2
Epoch rev:           75109
Checksum:              284

